Regional Weather Roundup
Issued by NWS

Home | Current Version | Previous Version | Graphics & Text | Print | Product List | Glossary On
Versions: 1 2 3 4 5 6 7 8 9 10 11 12 13 14 15 16 17 18 19 20 21 22 23 24 25 26 27 28 29 30 31 32 33 34 35 36 37 38 39 40 41 42 43 44 45 46 47 48 49 50
818
ASUS43 KMPX 241710
RWRMN
WEATHER ROUNDUP FOR MINNESOTA
NATIONAL WEATHER SERVICE TWIN CITIES/CHANHASSEN MN
1200 PM CDT SAT SEP 24 2016


NOTE: "FAIR" INDICATES FEW OR NO CLOUDS BELOW 12,000 FEET WITH NO
SIGNIFICANT WEATHER AND/OR OBSTRUCTIONS TO VISIBILITY. N/A MEANS
CURRENT SKY AND/OR WEATHER CONDITIONS ARE NOT AVAILABLE.

MNZ060>063-068>070-241800-
   Twin Cities Metro

CITY           SKY/WX    TMP DP  RH WIND       PRES   REMARKS
TWIN CITIES    CLOUDY    67  62  84 SE15G23   30.08F
ST PAUL        CLOUDY    65  62  90 SE14G23   30.09F
CRYSTAL        CLOUDY    66  60  81 SE9       30.07S
BLAINE         CLOUDY    68  64  88 SE12G20   30.08F
LAKEVILLE      CLOUDY    64  64 100 SE10G21   30.09S
EDEN PRAIRIE   CLOUDY    68  63  84 SE14      30.07S
LAKEVILLE      CLOUDY    64  64 100 SE10G21   30.09S
SOUTH ST PAUL  CLOUDY    66  63  90 SE7       30.09F
LAKE ELMO      CLOUDY    64  63  94 SE9G17    30.11F
$$
MNZ001>005-007-008-013>017-022>024-027-028-241800-
   Northwest Minnesota

CITY           SKY/WX    TMP DP  RH WIND       PRES   REMARKS
BEMIDJI        CLOUDY    63  61  93 SE13      30.01S
HALLOCK        CLOUDY    68  64  88 SE10      29.88F
ROSEAU         CLOUDY    63  57  82 SE12      29.95F
WARROAD        CLOUDY    63  59  88 SE9       29.98S
THIEF RVR FALL PTSUNNY   72  65  78 SE16      29.93S
CROOKSTON      MOSUNNY   73  64  73 S20G26    29.89F
FOSSTON        MOSUNNY   70  63  78 SE14G21   29.95S
DETROIT LAKES  CLOUDY    66  63  88 SE15      29.96F
MOORHEAD       CLOUDY    75  64  69 S21G32    29.88F
PARK RAPIDS    CLOUDY    65  61  87 SE20      30.01S
MAHNOMEN       CLOUDY    69  63  81 SE14G23   29.94S
$$
MNZ006-009>011-018-025>026-241800-
   North Central Minnesota

CITY           SKY/WX    TMP DP  RH WIND       PRES   REMARKS
BAUDETTE       CLOUDY    62  59  90 SE12      30.01R
FLAG ISLAND    CLOUDY    59  57  94 SE7       29.99F FOG
INTL FALLS     CLOUDY    63  56  78 SE13G20   30.06F
WASKISH        CLOUDY    64  61  88 SE10G17   30.01R
BIG FORK       CLOUDY    63  57  82 SE9G18    30.07S
GRAND RAPIDS   CLOUDY    60  57  89 SE12G17   30.10S
ORR            CLOUDY    61  54  77 SE6       30.07F
COOK           CLOUDY    61  55  82 SE7       30.11S
WALKER         CLOUDY    62  60  93 S8        30.03S
$$
MNZ012-019>021-037-241800-
   Northeast Minnesota

CITY           SKY/WX    TMP DP  RH WIND       PRES   REMARKS
DULUTH         FOG       58  58 100 SE10      30.14F VSB 3/4
ELY            CLOUDY    63  54  72 SE10      30.14S
HIBBING        CLOUDY    59  56  89 SE13      30.11S
EVELETH        CLOUDY    60  55  84 SE10      30.13F
DULUTH HARBOR  CLOUDY    59  55  88 NE10      30.15F
TWO HARBORS    CLOUDY    61  55  82 E8        30.15F HAZE
SILVER BAY     CLOUDY    63  55  77 E10       30.16F
GRAND MARAIS     N/A     61  56  83 E9        30.21S
G MARAIS ARPRT CLOUDY    57  48  72 SE9       30.23S
$$
MNZ029>031-032-039>041-046>048-054>057-064-241800-
   West Central Minnesota

CITY           SKY/WX    TMP DP  RH WIND       PRES   REMARKS
FERGUS FALLS   MOSUNNY   72  64  78 SE22G28   29.94S
MORRIS         MOSUNNY   75  66  73 SE20G28   29.93S
ALEXANDRIA     CLOUDY    67  65  93 SE16G23   30.00F FOG
ELBOW LAKE     PTSUNNY   71  65  82 E22G30    29.94F
GLENWOOD       PTSUNNY   66  64  94 SE14G23   30.00F FOG
APPLETON       MOSUNNY   75  64  69 SE17G23   29.93S
BENSON         MOSUNNY   72  64  78 S21       29.95F
ORTONVILLE     PTSUNNY   75  64  69 SE17G23   29.91F
MADISON          N/A     79  66  65 SE16G26   29.92S
WILLMAR        CLOUDY    70  66  88 SE15G22   30.00F
$$
MNZ033>034-036-042>043-049>051-058-059-241800-
   Central Minnesota

CITY           SKY/WX    TMP DP  RH WIND       PRES   REMARKS
ST CLOUD       CLOUDY    63  63 100 SE12      30.06F FOG
SAUK CENTRE    CLOUDY    64  64  97 SE13G22   30.02F FOG
PAYNESVILLE    CLOUDY    66  66 100 SE15      30.03F FOG
AITKIN         CLOUDY    64  57  77 SE9G16    30.06F
PINE RIVER     CLOUDY    61  61 100 SE14      30.08S
BRAINERD       CLOUDY    62  60  93 S10       30.07R
STAPLES        CLOUDY    61  61 100 SE10G17   30.03S FOG
LONG PRAIRIE   CLOUDY    63  63 100 E13       30.03F FOG
LITTLE FALLS   CLOUDY    61  59  94 SE10      30.06S FOG
LITCHFIELD     CLOUDY    70  66  88 SE9       30.04F
BUFFALO        CLOUDY    65  62  90 E10G16    30.08F
MAPLE LAKE     CLOUDY    65  64  97 SE7       30.07F FOG
HUTCHINSON     CLOUDY    69  65  88 SE14      30.05F
$$
MNZ037-044-045-052-053-241800-
   East Central Minnesota

CITY           SKY/WX    TMP DP  RH WIND       PRES   REMARKS
PRINCETON      CLOUDY    64  63  94 SE10      30.09R FOG
MORA           CLOUDY    61  59  94 SE10G21   30.11S
CAMBRIDGE      CLOUDY    66  61  82 E9        30.07F
MOOSE LAKE     CLOUDY    61  57  88 SE5       30.10F
HINCKLEY       CLOUDY    63  61  94 E7        30.11S
CLOQUET        CLOUDY    57  55  94 E8        30.13S FOG
MCGREGOR       CLOUDY    61  59  94 SE8G17    30.09F
$$
MNZ071>073-080-081-089-090-097-098-241800-
   Southwest Minnesota

CITY           SKY/WX    TMP DP  RH WIND       PRES   REMARKS
MONTEVIDEO     CLOUDY    75  66  73 S18G24    29.96F
GRANITE FALLS  MOSUNNY   76  67  74 E20G25    29.97S
CANBY          MOSUNNY   77  67  71 SE20      29.92F
MARSHALL       PTSUNNY   77  68  73 S20G26    29.93F
REDWOOD FALLS  SUNNY     75  65  70 SE22G30   29.98F
OLIVIA         PTSUNNY   73  66  78 SE18G24   29.99F
PIPESTONE      PTSUNNY   77  66  69 SE14G23   29.92F
WINDOM         SUNNY     79  64  61 SE18G25   29.99F
WORTHINGTON    MOSUNNY   79  67  66 SE20      29.96F
JACKSON        MOSUNNY   77  63  61 SE17G23   30.01F
TRACY          CLOUDY    77  69  75 SE14      29.96F
SLAYTON        CLOUDY    77  66  69 SE17G28   29.97F
$$
MNZ065>067-074>077-082>085-091>093-241800-
   South Central Minnesota

CITY           SKY/WX    TMP DP  RH WIND       PRES   REMARKS
MANKATO        PTSUNNY   71  65  81 SE16      30.05F
NEW ULM        PTSUNNY   72  66  83 SE16G23   30.01F
ST JAMES       SUNNY     73  64  73 SE15G24   30.02F
FAIRMONT       CLOUDY    73  66  78 SE14G24   30.03F
GLENCOE        CLOUDY    71  67  86 SE12      30.04F
FARIBAULT      CLOUDY    70  64  83 SE9G21    30.09S
OWATONNA       MOSUNNY   70  63  78 SE15G23   30.09S
WASECA         PTSUNNY   70  64  83 SE15      30.09S
ALBERT LEA     CLOUDY    70  64  83 SE13G20   30.09F FOG
$$
MNZ078>079-086>088-094>096-241800-
   Southeast Minnesota

CITY           SKY/WX    TMP DP  RH WIND       PRES   REMARKS
ROCHESTER      CLOUDY    67  64  90 SE15G22   30.13S
RED WING       CLOUDY    66  63  88 SE12G18   30.10F
STANTON        CLOUDY    68  63  83 SE15      30.08F
DODGE CENTER   CLOUDY    66  63  88 SE14G20   30.11F
WINONA         CLOUDY    66  63  88 SE12      30.15F
AUSTIN         CLOUDY    66  63  88 SE7       30.12S FOG
PRESTON        CLOUDY    64  62  91 SE13      30.15F FOG
$$
ABBREVIATIONS USED IN REMARKS
   TC - TEMPERATURES IN CELSIUS
  WCI - WIND CHILL INDEX
   HX - HEAT INDEX
  VSB - VISIBILITY
$$




USA.gov is the U.S. government's official web portal to all federal, state and local government web resources and services.